Edwards, CA

3:25 PM PST on December 06, 2016 (GMT -0800)
Edwards AFB North Base

Weather History for K9L2 - February, 2014

Change the Weather History Date:

Monday, February 10, 2014

  Actual Average (KEDW) Record (KEDW)
Temperature  
Mean Temperature 58 °F -  
Max Temperature 72 °F 57 °F 77 °F (2012)
Min Temperature 42 °F 32 °F 22 °F (2013)
Degree Days  
Heating Degree Days 8    
Growing Degree Days 8 (Base 50)    
Moisture  
Dew Point 36 °F    
Average Humidity 47    
Maximum Humidity 67    
Minimum Humidity 17    
Precipitation  
Precipitation 0.00 in - - ()
Sea Level Pressure  
Sea Level Pressure 30.06 in    
Wind  
Wind Speed 16 mph (West)    
Max Wind Speed 26 mph    
Max Gust Speed 38 mph    
Visibility 10 miles    
Events      
Averages and records for this station are not official NWS values.
T = Trace of Precipitation, MM = Missing Value Source: NWS Daily Summary

Daily Weather History Graph

Daily Weather History Graph

Search for Another Location

Airport or City:

Trip Planner

Search our weather history database for the weather conditions in past years. The results will help you decide how hot, cold, wet, or windy it might be!

Date:

Astronomy

Feb. 10, 2014 Rise Set
Actual Time 6:42 AM PST 5:29 PM PST
Civil Twilight 6:16 AM PST 5:55 PM PST
Nautical Twilight 5:46 AM PST 6:25 PM PST
Astronomical Twilight 5:16 AM PST 6:54 PM PST
Moon 2:06 PM PST (2/10) 3:35 AM PST (2/10)
Length of Visible Light 11h 39m
Length of Day
10h 47m
Waxing Gibbous, 85% of the Moon is Illuminated
Feb 10
Waxing Gibbous
Feb 14
Full
Feb 22
Last Quarter
Mar 1
New
Mar 8
First Quarter

Hourly Weather History & Observations

Time (PST) Temp. Windchill Dew Point Humidity Pressure Visibility Wind Dir Wind Speed Gust Speed Precip Events Conditions
12:55 AM 54.0 °F - 39.9 °F 59% 30.04 in 10.0 mi WSW 18.4 mph 25.3 mph N/A   Clear
1:55 AM 53.1 °F - 39.9 °F 61% 30.04 in 10.0 mi WSW 16.1 mph - N/A   Clear
2:55 AM 57.0 °F - 37.9 °F 49% 30.04 in 10.0 mi West 26.5 mph 32.2 mph N/A   Clear
3:55 AM 57.0 °F - 36.0 °F 45% 30.06 in 10.0 mi West 16.1 mph - N/A   Scattered Clouds
4:55 AM 57.0 °F - 39.9 °F 53% 30.07 in 10.0 mi West 10.4 mph 20.7 mph N/A   Clear
5:55 AM 55.0 °F - 43.0 °F 64% 30.07 in 10.0 mi WSW 18.4 mph 26.5 mph N/A   Partly Cloudy
6:55 AM 55.9 °F - 43.0 °F 62% 30.06 in 10.0 mi SW 26.5 mph 38.0 mph N/A   Clear
7:55 AM 57.9 °F - 43.0 °F 58% 30.11 in 10.0 mi WSW 13.8 mph 18.4 mph N/A   Clear
8:55 AM 61.0 °F - 41.0 °F 48% 30.11 in 10.0 mi West 21.9 mph 27.6 mph N/A   Clear
9:55 AM 63.0 °F - 37.9 °F 40% 30.10 in 10.0 mi West 24.2 mph 32.2 mph N/A   Clear
10:55 AM 63.0 °F - 37.9 °F 40% 30.09 in 10.0 mi West 23.0 mph 34.5 mph N/A   Clear
11:55 AM 66.0 °F - 35.1 °F 32% 30.06 in 10.0 mi West 25.3 mph 31.1 mph N/A   Clear
12:55 PM 69.1 °F - 34.0 °F 27% 30.03 in 10.0 mi West 18.4 mph - N/A   Clear
1:55 PM 71.1 °F - 28.0 °F 20% 30.01 in 10.0 mi NNE 5.8 mph - N/A   Clear
2:55 PM 72.0 °F - 24.1 °F 17% 29.99 in 10.0 mi Calm Calm - N/A   Clear
3:55 PM 70.0 °F - 28.9 °F 22% 30.00 in 10.0 mi WNW 15.0 mph - N/A   Clear
4:55 PM 64.0 °F - 36.0 °F 35% 30.01 in 10.0 mi West 15.0 mph - N/A   Clear
5:55 PM 59.0 °F - 36.0 °F 42% 30.04 in 10.0 mi West 6.9 mph - N/A   Clear
6:55 PM 55.0 °F - 36.0 °F 49% 30.07 in 10.0 mi WNW 5.8 mph - N/A   Clear
7:55 PM 51.1 °F - 36.0 °F 56% 30.09 in 10.0 mi Calm Calm - N/A   Clear
8:55 PM 50.0 °F - 36.0 °F 59% 30.09 in 10.0 mi SW 3.5 mph - N/A   Clear
9:55 PM 45.0 °F 43.5 °F 34.0 °F 65% 30.12 in 10.0 mi WNW 3.5 mph - N/A   Clear
10:55 PM 43.0 °F - 30.9 °F 62% 30.13 in 10.0 mi Calm Calm - N/A   Clear
11:55 PM 42.1 °F 39.2 °F 32.0 °F 67% 30.13 in 10.0 mi NNE 4.6 mph - N/A   Clear